Regional Weather Roundup
Issued by NWS

Home | Current Version | Previous Version | Text Only | Print | Product List | Glossary Off
Versions: 1 2 3 4 5 6 7 8 9 10 11 12 13 14 15 16 17 18 19 20 21 22 23 24 25 26 27 28 29 30 31 32 33 34 35 36 37 38 39 40 41 42 43 44 45 46 47 48 49 50

000
ASUS43 KDTX 241401
RWRMI
MICHIGAN HOURLY REGIONAL WEATHER ROUNDUP
NATIONAL WEATHER SERVICE DETROIT/PONTIAC MI
1000 AM EDT SUN JUL 24 2016

NOTE: "FAIR" INDICATES FEW OR NO CLOUDS BELOW 12,000 FEET WITH NO
SIGNIFICANT WEATHER AND/OR OBSTRUCTION TO VISIBILITY.

MIZ047>049-052>055-059>063-066>070-074>076-081>083-241500-
SOUTHEAST LOWER MICHIGAN

CITY           SKY/WX    TMP DP  RH WIND       PRES   REMARKS
ADRIAN         LGT RAIN  75  73  93 VRB3      30.00R FOG
ALMA           HVY RAIN  72  72  99 S12       29.96S
ANN ARBOR      LGT RAIN  75  72  90 W5        29.98R
BAD AXE        CLOUDY    73  61  67 S3        29.97S
CARO           LGT RAIN  71  65  82 CALM      29.96F
DETROIT CITY   LGT RAIN  79  70  74 S7        29.96S
DETROIT        LGT RAIN  80  71  74 S7        29.97R
FLINT          CLOUDY    74  70  87 SW6       29.98F
GROSSE ILE     CLOUDY    79  73  83 S7        29.96R
HOWELL         RAIN      71  70  97 NE3       29.98F

CITY           SKY/WX    TMP DP  RH WIND       PRES   REMARKS
JACKSON        CLOUDY    73  73 100 MISG      29.96F
LAMBERTVILLE   CLOUDY    79  73  81 W6        29.98S
LANSING        TSTM      72  70  93 N5        29.99R VSB 1
LAPEER         RAIN      72  66  80 SW9G16    30.00R
MASON          LGT RAIN  71  69  95 E6        29.96F
MONROE         CLOUDY    78  73  85 SW5       29.96R
PONTIAC        LGT RAIN  73  69  87 NW9       29.99R FOG
PORT HOPE        N/A     74  62  66 CALM      29.96R
PORT HURON     CLOUDY    73  66  78 SE6       29.97F
TRI CITIES     RAIN      70  68  93 S7        29.96F FOG
MIDLAND        HVY RAIN  69  68  95 SE3       29.93F
TROY           CLOUDY    79  66  64 S3        29.98S
SAGINAW HB     RAIN      70  68  94 CALM      29.96S
$$
MIZ043>046-050>051-056>058-064>065-071>073-077>080-241500-
SOUTHWEST LOWER MICHIGAN

CITY           SKY/WX    TMP DP  RH WIND       PRES   REMARKS
BATTLE CREEK   RAIN      68  68 100 W8        30.02R FOG
BENTON HARBOR  CLOUDY    76  70  82 S7        29.94F
BIG RAPIDS     CLOUDY    70  70 100 S5        29.92F
COLDWATER      CLOUDY    73  73  98 SW5       29.99S
FREMONT        RAIN      69  69 100 SW3       29.92F
HOLLAND        TSTM      69  68  96 S10       29.97F FOG
GRAND RAPIDS   TSTM      70  68  93 SW8       29.96S
IONIA          RAIN      71  69  95 S3        29.95F
KALAMAZOO      CLOUDY    74  68  81 N8        30.01R
LUDINGTON      CLOUDY    71  70  95 S9        29.87F
MARSHALL       CLOUDY    72  72 100 W17G26    30.03R
MOUNT PLEASANT LGT RAIN  72  70  96 S10       29.90F
MUSKEGON       LGT RAIN  71  69  93 NE6       29.94F
SOUTH HAVEN    CLOUDY    73  71  92 E9        29.98S
$$
MIZ016>042-241500-
NORTHERN LOWER MICHIGAN

CITY           SKY/WX    TMP DP  RH WIND       PRES   REMARKS
ALPENA         CLOUDY    72  65  78 SE3       29.92S
BEAVER ISLAND  CLOUDY    72  70  94 S5        29.84F
BELLAIRE       CLOUDY    75  69  81 S6        29.87F
CADILLAC       CLOUDY    71  69  94 SW10      29.91S
CHARLEVOIX     CLOUDY    75  68  77 S7        29.89F
FRANKFORT      CLOUDY    74  69  84 S7        29.84F
GAYLORD        CLOUDY    76  66  71 S10       29.91S
GRAYLING       CLOUDY    73  69  89 CALM      29.92S
HARBOR SPRINGS CLOUDY    74  68  81 SW5       29.87S
HOUGHTON LAKE  CLOUDY    71  68  90 S7        29.93R
MANISTEE       CLOUDY    71  70  96 SE6       29.86F
OSCODA         CLOUDY    70  67  90 S6        29.92F
PELLSTON       CLOUDY    70  64  81 CALM      29.88F
ROGERS CITY    CLOUDY    70  64  80 S7        29.90F
TRAVERSE CITY  CLOUDY    77  71  82 VRB7      29.84F
$$
MIZ007>008-015-241500-
EASTERN UPPER MICHIGAN

CITY           SKY/WX    TMP DP  RH WIND       PRES   REMARKS
KINROSS        CLOUDY    66  65  96 SE13      29.87F
MACKINAC ISLAN CLOUDY    67  67 100 E5        29.86F
NEWBERRY       CLOUDY    68  67  96 S10G17    29.82F FOG
S. S. MARIE    CLOUDY    67  65  93 E8        29.86F
$$
MIZ004>006-011>014-085-241500-
CENTRAL UPPER MICHIGAN

CITY           SKY/WX    TMP DP  RH WIND       PRES   REMARKS
MANISTIQUE     CLOUDY    69  69  97 S13       29.75F FOG
ESCANABA       CLOUDY    72  70  94 S13       29.76S
MENOMINEE      CLOUDY    75  71  87 SW15      29.78F
SAWYER-GWINN   CLOUDY    70  68  94 S15       29.77F FOG
$$
MIZ001>003-009>011-084-241500-
WESTERN UPPER MICHIGAN

CITY           SKY/WX    TMP DP  RH WIND       PRES   REMARKS
IRON MOUNTAIN  CLOUDY    73  69  87 S9        29.78R
HOUGHTON       CLOUDY    69  67  93 SE3       29.73S
COPPER HARBOR    N/A     69  66  90 SW7       29.70F
IRONWOOD       MOSUNNY   73  66  78 SW12      29.76S
$$

ABBREVIATIONS USED IN REMARKS
   TC - TEMPERATURE IN CELSIUS
  WCI - WIND CHILL INDEX
   HX - HEAT INDEX
  VSB - VISIBILITY




USA.gov is the U.S. government's official web portal to all federal, state and local government web resources and services.